Location: T�bingen+AIT
(48.5342°N, 9.0700°E)
Time: 20:28:54
(UTC+02:00)

GEOS 3 Rocket - Pass Details

Date: 14 September 2017
Orbit: 773 x 846 km, 115.0° (Epoch: 19 September)

Event Time Altitude Azimuth Distance (km) Brightness Sun altitude
Rises 20:58:38 0° 40° (NE) 3,404 6.7 -13.7°
Reaches altitude 10° 21:00:58 10° 42° (NE) 2,471 5.9 -14.1°
Maximum altitude 21:06:22 81° 129° (SE) 863 3.6 -14.9°
Drops below altitude 10° 21:11:45 10° 218° (SW) 2,460 6.3 -15.7°
Sets 21:14:04 0° 219° (SW) 3,389 7.0 -16.1°
